TimeEDT,TemperatureF,Dew PointF,Humidity,Sea Level PressureIn,VisibilityMPH,Wind Direction,Wind SpeedMPH,Gust SpeedMPH,PrecipitationIn,Events,Conditions,WindDirDegrees,DateUTC
12:53 AM,55.9,37.0,49,29.95,10.0,WSW,6.9,-,N/A,,Mostly Cloudy,250,2012-10-22 04:53:00
1:53 AM,54.0,37.9,55,29.96,10.0,Calm,Calm,-,N/A,,Clear,0,2012-10-22 05:53:00
2:53 AM,53.1,37.9,57,29.96,10.0,West,4.6,-,N/A,,Clear,270,2012-10-22 06:53:00
3:53 AM,53.1,37.9,57,29.97,10.0,WSW,6.9,-,N/A,,Clear,250,2012-10-22 07:53:00
4:53 AM,48.9,39.9,71,29.98,10.0,SSE,3.5,-,N/A,,Partly Cloudy,160,2012-10-22 08:53:00
5:53 AM,46.9,39.9,77,29.99,10.0,SSE,3.5,-,N/A,,Clear,150,2012-10-22 09:53:00
6:53 AM,52.0,39.9,63,30.01,10.0,West,3.5,-,N/A,,Clear,260,2012-10-22 10:53:00
7:53 AM,52.0,39.9,63,30.03,10.0,WSW,3.5,-,N/A,,Clear,250,2012-10-22 11:53:00
8:53 AM,54.0,39.9,59,30.04,10.0,West,9.2,-,N/A,,Clear,260,2012-10-22 12:53:00
10:53 AM,60.1,41.0,49,30.04,10.0,West,13.8,21.9,N/A,,Scattered Clouds,280,2012-10-22 14:53:00
11:53 AM,60.1,41.0,49,30.03,10.0,WNW,10.4,24.2,N/A,,Partly Cloudy,300,2012-10-22 15:53:00
1:53 PM,64.9,39.9,40,29.98,10.0,NW,10.4,19.6,N/A,,Partly Cloudy,310,2012-10-22 17:53:00
2:53 PM,66.0,39.9,38,29.96,10.0,NNW,13.8,23.0,N/A,,Clear,340,2012-10-22 18:53:00
3:53 PM,66.0,39.9,38,29.96,10.0,NW,9.2,24.2,N/A,,Clear,310,2012-10-22 19:53:00
4:53 PM,66.0,39.9,38,29.96,10.0,WNW,10.4,18.4,N/A,,Clear,300,2012-10-22 20:53:00
5:53 PM,64.9,39.9,40,29.97,10.0,WNW,5.8,-,N/A,,Clear,300,2012-10-22 21:53:00
6:53 PM,63.0,39.9,43,29.99,10.0,WNW,3.5,-,N/A,,Clear,300,2012-10-22 22:53:00
7:53 PM,62.1,39.9,44,30.00,10.0,Calm,Calm,-,N/A,,Clear,0,2012-10-22 23:53:00
9:53 PM,60.1,37.0,42,30.03,10.0,NNW,5.8,-,N/A,,Clear,340,2012-10-23 01:53:00
10:53 PM,59.0,37.0,44,30.04,10.0,NW,6.9,-,N/A,,Clear,310,2012-10-23 02:53:00
11:53 PM,57.9,37.0,46,30.04,10.0,WNW,4.6,-,N/A,,Clear,300,2012-10-23 03:53:00